KOZAKOV Weather Reports


Display with metric or nautical units.
time (UTC)temp
F
wind
direction
speed
MPH
gust
MPH
rain 1hr
in
rain 24hr
in
rain mn
in
humidity
%
barometer
mb
20260504202019 61 87 2.0 2.0 0.00 0.00 0.00 51
20260504201518 61 87 2.0 2.0 0.00 0.00 0.00 52
20260504200518 61 87 4.0 4.0 0.00 0.00 0.00 51
20260504200017 61 87 2.0 2.0 0.00 0.00 0.00 53
20260504195018 61 87 4.0 4.0 0.00 0.00 0.00 52
20260504193518 61 87 2.0 2.0 0.00 0.00 0.00 51
20260504193017 61 87 4.0 4.0 0.00 0.00 0.00 49
20260504192517 61 277 0.0 4.0 0.00 0.00 0.00 48
20260504192021 61 273 2.0 2.0 0.00 0.00 0.00 44
20260504191017 61 273 0.0 0.0 0.00 0.00 0.00 43
20260504185517 61 273 0.0 0.0 0.00 0.00 0.00 44
20260504185018 61 273 0.0 0.0 0.00 0.00 0.00 45
20260504184518 61 273 0.0 0.0 0.00 0.00 0.00 47
20260504184017 61 273 0.0 0.0 0.00 0.00 0.00 49
20260504183517 61 273 0.0 0.0 0.00 0.00 0.00 50
20260504183017 61 273 0.0 0.0 0.00 0.00 0.00 47
20260504182517 61 273 0.0 0.0 0.00 0.00 0.00 48
20260504182022 61 273 0.0 0.0 0.00 0.00 0.00 49
20260504181018 61 273 0.0 0.0 0.00 0.00 0.00 51
20260504180522 61 273 0.0 0.0 0.00 0.00 0.00 50
20260504180018 63 273 0.0 0.0 0.00 0.00 0.00 48
20260504175517 63 273 2.0 2.0 0.00 0.00 0.00 47
20260504175017 63 273 0.0 2.0 0.00 0.00 0.00 49
20260504174518 63 273 0.0 0.0 0.00 0.00 0.00 51
20260504174017 61 273 0.0 2.0 0.00 0.00 0.00 53
20260504173518 63 273 0.0 0.0 0.00 0.00 0.00 53
20260504170518 61 273 0.0 0.0 0.00 0.00 0.00 53
20260504151017 64 256 2.0 4.0 0.00 0.00 0.00 50
20260504150517 63 239 7.0 7.0 0.00 0.00 0.00 50
20260504141017 64 213 2.0 4.0 0.00 0.00 0.00 50
20260504140518 63 251 4.0 4.0 0.00 0.00 0.00 50
20260504130518 63 192 2.0 2.0 0.00 0.00 0.00 50
20260504110517 63 236 0.0 2.0 0.00 0.00 0.00 55
20260504100518 61 119 0.0 2.0 0.00 0.00 0.00 58
20260504081517 54 183 0.0 2.0 0.00 0.00 0.00 69
20260504081018 52 183 4.0 4.0 0.00 0.00 0.00 68
20260504050518 50 85 13.0 16.0 0.00 0.00 0.00 56
20260504050018 50 84 13.0 16.0 0.00 0.00 0.00 57
20260504045517 50 81 13.0 16.0 0.00 0.00 0.00 57
20260504045017 50 76 16.0 16.0 0.00 0.00 0.00 57
20260504044517 50 75 16.0 18.0 0.00 0.00 0.00 56
20260504044018 50 75 16.0 16.0 0.00 0.00 0.00 56
20260504043518 50 76 13.0 16.0 0.00 0.00 0.00 56
20260504043017 50 76 16.0 18.0 0.00 0.00 0.00 56
20260504042517 50 76 16.0 16.0 0.00 0.00 0.00 56
20260504041518 50 78 16.0 16.0 0.00 0.00 0.00 55
20260504041017 50 80 13.0 16.0 0.00 0.00 0.00 56
20260504040517 50 80 13.0 16.0 0.00 0.00 0.00 55
20260504040018 50 78 13.0 16.0 0.00 0.00 0.00 55
20260504035516 50 76 13.0 16.0 0.00 0.00 0.00 55
20260504035018 50 76 13.0 13.0 0.00 0.00 0.00 55
20260504034518 50 79 13.0 13.0 0.00 0.00 0.00 55
20260504034017 50 82 13.0 16.0 0.00 0.00 0.00 55
20260504033518 50 82 13.0 13.0 0.00 0.00 0.00 55
20260504033017 50 81 13.0 13.0 0.00 0.00 0.00 55
20260504032517 50 81 13.0 16.0 0.00 0.00 0.00 55
20260504032019 50 80 13.0 16.0 0.00 0.00 0.00 55
20260504031517 50 85 13.0 16.0 0.00 0.00 0.00 55
20260504031017 50 86 16.0 16.0 0.00 0.00 0.00 55
20260504030517 50 88 16.0 16.0 0.00 0.00 0.00 55
20260504030017 50 88 16.0 18.0 0.00 0.00 0.00 55
20260504025517 50 88 16.0 18.0 0.00 0.00 0.00 54
20260504025018 50 93 16.0 16.0 0.00 0.00 0.00 54
20260504024517 50 91 13.0 16.0 0.00 0.00 0.00 54
20260504024017 50 90 16.0 18.0 0.00 0.00 0.00 54
20260504023517 50 94 16.0 18.0 0.00 0.00 0.00 54
20260504023018 50 96 18.0 18.0 0.00 0.00 0.00 53
20260504022516 50 96 16.0 18.0 0.00 0.00 0.00 53
20260504022021 50 97 16.0 18.0 0.00 0.00 0.00 53
20260504021518 50 96 16.0 18.0 0.00 0.00 0.00 53
20260504021018 50 98 16.0 18.0 0.00 0.00 0.00 53
20260504020517 50 96 16.0 18.0 0.00 0.00 0.00 53
20260504020017 52 95 18.0 18.0 0.00 0.00 0.00 53
20260504015518 50 98 16.0 16.0 0.00 0.00 0.00 53
20260504015018 52 95 16.0 18.0 0.00 0.00 0.00 53
20260504014518 52 93 16.0 18.0 0.00 0.00 0.00 53
20260504014017 50 91 16.0 16.0 0.00 0.00 0.00 53
20260504013517 52 92 16.0 18.0 0.00 0.00 0.00 53
20260504013018 52 95 16.0 18.0 0.00 0.00 0.00 53
20260504012517 52 96 18.0 20.0 0.00 0.00 0.00 53
20260504012019 52 97 18.0 20.0 0.00 0.00 0.00 53
20260504011517 52 90 18.0 22.0 0.00 0.00 0.00 53
20260504011018 52 90 16.0 20.0 0.00 0.00 0.00 53
20260504010518 52 94 20.0 20.0 0.00 0.00 0.00 53
20260504010017 52 93 18.0 22.0 0.00 0.00 0.00 53
20260504005517 52 94 18.0 20.0 0.00 0.00 0.00 53
20260504005017 52 95 18.0 20.0 0.00 0.00 0.00 53
20260504004511 52 96 16.0 18.0 0.00 0.00 0.00 53
20260504004017 52 93 20.0 22.0 0.00 0.00 0.00 52
20260504003511 52 96 20.0 20.0 0.00 0.00 0.00 53
20260504003011 52 93 18.0 20.0 0.00 0.00 0.00 53
20260504002517 52 91 18.0 22.0 0.00 0.00 0.00 53
20260504002020 52 96 20.0 22.0 0.00 0.00 0.00 54
20260504001518 52 92 18.0 22.0 0.00 0.00 0.00 54
20260504001018 52 93 18.0 20.0 0.00 0.00 0.00 54
20260504000517 52 93 20.0 22.0 0.00 0.00 0.00 54
20260504000018 52 97 20.0 22.0 0.00 0.00 0.00 54
20260503235511 54 94 20.0 22.0 0.00 0.00 0.00 54
20260503235017 54 97 20.0 22.0 0.00 0.00 0.00 54
20260503234518 52 94 20.0 22.0 0.00 0.00 0.00 54
20260503234018 52 94 18.0 20.0 0.00 0.00 0.00 55
20260503233518 52 92 18.0 20.0 0.00 0.00 0.00 54
20260503232517 54 94 20.0 22.0 0.00 0.00 0.00 54
20260503232021 54 94 18.0 20.0 0.00 0.00 0.00 53
20260503231517 54 94 18.0 22.0 0.00 0.00 0.00 53
20260503231017 54 90 18.0 20.0 0.00 0.00 0.00 52
20260503230518 54 95 20.0 20.0 0.00 0.00 0.00 52
20260503230018 54 91 20.0 22.0 0.00 0.00 0.00 51
20260503225517 54 98 18.0 20.0 0.00 0.00 0.00 51
20260503225017 54 93 18.0 20.0 0.00 0.00 0.00 51
20260503224518 54 96 18.0 20.0 0.00 0.00 0.00 50
20260503224018 55 98 18.0 18.0 0.00 0.00 0.00 49
20260503223518 55 99 18.0 20.0 0.00 0.00 0.00 49
20260503223017 55 101 18.0 20.0 0.00 0.00 0.00 49
20260503222517 55 98 16.0 18.0 0.00 0.00 0.00 49
20260503222019 55 102 18.0 18.0 0.00 0.00 0.00 49
20260503221518 55 99 16.0 18.0 0.00 0.00 0.00 49
20260503221018 55 102 16.0 20.0 0.00 0.00 0.00 49
20260503220518 55 100 18.0 18.0 0.00 0.00 0.00 48
20260503220019 55 102 16.0 18.0 0.00 0.00 0.00 48
20260503215517 55 101 18.0 18.0 0.00 0.00 0.00 48
20260503215018 55 100 18.0 20.0 0.00 0.00 0.00 48
20260503214517 55 100 16.0 18.0 0.00 0.00 0.00 48
20260503214017 55 102 18.0 18.0 0.00 0.00 0.00 47
20260503213517 55 103 18.0 18.0 0.00 0.00 0.00 47
20260503213018 55 101 16.0 18.0 0.00 0.00 0.00 46
20260503212518 57 103 16.0 20.0 0.00 0.00 0.00 46
20260503212020 57 104 16.0 18.0 0.00 0.00 0.00 46
20260503211518 57 104 16.0 18.0 0.00 0.00 0.00 45
20260503211018 57 105 16.0 18.0 0.00 0.00 0.00 45
20260503210518 57 107 13.0 16.0 0.00 0.00 0.00 45
20260503210017 57 107 16.0 16.0 0.00 0.00 0.00 44
20260503205517 57 107 13.0 16.0 0.00 0.00 0.00 44
20260503205017 57 110 16.0 18.0 0.00 0.00 0.00 44
20260503204517 57 111 13.0 16.0 0.00 0.00 0.00 44
20260503204017 57 114 16.0 18.0 0.00 0.00 0.00 44
20260503203517 57 112 16.0 18.0 0.00 0.00 0.00 44
20260503203017 57 115 13.0 16.0 0.00 0.00 0.00 44
20260503202518 59 122 13.0 16.0 0.00 0.00 0.00 43